Regional Weather Roundup
Issued by NWS Jackson, KY

Home | Current Version | Previous Version | Graphics & Text | Print | Product List | Glossary Off
Versions: 1 2 3 4 5 6 7 8 9 10 11 12 13 14 15 16 17 18 19 20 21 22 23 24 25 26 27 28 29 30 31 32 33 34 35 36 37 38 39 40 41 42 43 44 45 46 47 48 49 50

000
ASUS43 KJKL 221910
RWRJKL

EAST KENTUCKY HOURLY WEATHER ROUNDUP
NATIONAL WEATHER SERVICE JACKSON KY
200 PM EST MON DEC 22 2014

NOTE: "FAIR" INDICATES FEW OR NO CLOUDS BELOW 12,000 FEET WITH
NO SIGNIFICANT WEATHER AND/OR OBSTRUCTIONS TO VISIBILITY.

* THESE REPORTS ARE NOT UNDER NWS QUALITY CONTROL AND MAY NOT
  REPORT WEATHER SUCH AS PRECIPITATION AND FOG.

KYZ079-080-083-085-087-088-110-112-115-119-120-222000
...EASTERN KENTUCKY...

CITY           SKY/WX    TMP DP  RH WIND       PRES   REMARKS
JACKSON        CLOUDY    55  39  54 CALM      29.88F
LONDON         CLOUDY    58  42  55 SE10      29.85F
SOMERSET*      CLOUDY    54  41  62 S3        29.86F
MONTICELLO*    PTSUNNY   58  44  59 S15       29.86F
MIDDLESBORO*   CLOUDY    56  42  59 E5        29.87F
HARLAN APT*    CLOUDY    55  41  58 E3        29.88F
HAZARD APT*    CLOUDY    59  41  51 CALM      29.87
BLACK MTN*       N/A     46  41  81 NE1         N/A
PIKEVILLE APT* PTSUNNY   54  39  58 CALM      29.90F
BIG SANDY*     PTCLDY    56  40  56 E3        29.90F
MOREHEAD APT*  CLOUDY    54  37  54 VRB5      29.90F
$$

KYZ035-036-041-042-044-050-067-078-099-222000
...CENTRAL KENTUCKY...

CITY           SKY/WX    TMP DP  RH WIND       PRES   REMARKS
MT STERLING*   CLOUDY    52  41  66 SE5       29.89F
FLEMING/MASON* MOSUNNY   52  41  66 SE5       29.89F
DANVILLE*      CLOUDY    54  41  62 S9        29.86F
RICHMOND*      CLOUDY    55  41  58 CALM      29.86F
LEXINGTON      CLOUDY    52  39  61 SE6       29.86F
FRANKFORT      CLOUDY    52  40  63 SE5       29.84F
$$

KYZ091>093-OHZ055-061-077-WVZ005-015-034-035-042-222000
...SOUTHERN OHIO/WEST VIRGINIA...

CITY           SKY/WX    TMP DP  RH WIND       PRES   REMARKS
COVINGTON      CLOUDY    51  36  56 SE9       29.87F
COLUMBUS       PTSUNNY   46  33  60 SE6       29.93F
DAYTON         CLOUDY    46  35  65 E8        29.90F
WILMINGTON     MOSUNNY   47  37  68 E6        29.90F
HUNTINGTON     MOSUNNY   57  38  48 CALM      29.89F
CHARLESTON     PTSUNNY   52  37  56 E7        29.94F
PINEVILLE*     PTSUNNY   53  42  66 MISG      29.98F
BECKLEY        CLOUDY    41  34  76 SE7       29.97F
BLUEFIELD      CLOUDY    41  34  76 VRB5      29.97F
$$

VAZ002-007-008-TNZ017-027-036-066-071-222000
...SOUTHWEST VIRGINIA/EAST TENNESSEE...

CITY           SKY/WX    TMP DP  RH WIND       PRES   REMARKS
WISE*          PTSUNNY   54  37  54 S7        29.91F
JONESVILLE*    CLEAR     57  41  54 E6        29.90F
ABINGDON*      MOSUNNY   56  41  58 E15       29.91F
BRISTOL        MOSUNNY   60  43  53 E8        29.89F
KNOXVILLE      PTSUNNY   57  41  55 CALM      29.86F
OAK RIDGE      CLOUDY    55  40  56 CALM      29.89F
CROSSVILLE     CLOUDY    52  44  74 VRB6      29.85F
NASHVILLE      CLOUDY    54  47  77 S14       29.80F
$$

...KEY TO REMARKS...
VSB - VISIBILITY IN MILES
WCI - WIND CHILL INDEX
HX  - HEAT INDEX

$$


USA.gov is the U.S. government's official web portal to all federal, state and local government web resources and services.